Location: Cutler
(25.6150°N, 80.3110°W)
Time: 14:13:00
(UTC-04:00)

Cosmos 2360 Rocket - Visible Passes

Search period start: 30 May 2015 00:00
Search period end: 09 June 2015 00:00
Orbit: 832 x 847 km, 71.0° (Epoch: 29 May)

Date Brightness Start Highest point End Pass type
(mag) Time Alt. Az. Time Alt. Az. Time Alt. Az.
30 May 3.0 21:17:02 10° SSW 21:22:33 55° WNW 21:28:05 10° N visible
31 May 2.9 21:01:21 10° SSW 21:06:55 59° WNW 21:12:30 10° N visible
01 Jun 2.8 20:45:42 10° SSW 20:51:17 64° WNW 20:56:55 10° N visible
02 Jun 5.6 05:50:08 10° NNE 05:53:02 15° ENE 05:56:14 10° E visible
02 Jun 2.7 20:30:02 10° SSW 20:35:40 69° WNW 20:41:18 10° NNE visible
03 Jun 5.6 05:34:49 10° NNE 05:37:21 13° ENE 05:40:13 10° E visible
04 Jun 5.6 05:19:33 10° NE 05:21:40 12° ENE 05:24:09 10° E visible
05 Jun 5.6 05:04:25 10° NE 05:05:59 11° ENE 05:07:57 10° E visible
06 Jun 5.7 04:49:34 10° NE 04:50:17 10° ENE 04:51:28 10° ENE visible
08 Jun 2.2 05:58:03 10° NNW 06:03:44 86° WSW 06:09:22 10° SSE visible
08 Jun 6.0 20:45:37 10° WNW 20:46:37 10° WNW 20:47:10 10° NW visible
